Погода в Авбари

Ливия     26°42′40″N   12°32′05″E
темп.,
°C
ветер,
м/с
пор.,
м/с
влажн.,
%
обл.,
%
осадки,
мм/ч
давл.,
гПа
погр.,
м
10 августа, ср
ср1023:00+30всв612200 0.0 1012171
02:00+28всв715230 0.0 1012280
05:00+26в511250 0.0 1012174
08:00+27в411254 0.0 1014367
11:00+34вюв77170 0.0 10131328
14:00+37в43140 0.0 10112862
17:00+38св44120 0.0 10093852
20:00+34св55160 0.0 101045
11 августа, чт
чт1123:00+30св610210 0.0 1011127
02:00+29в612230 0.0 1011196
05:00+26в46310 0.0 101275
08:00+27в49300 0.0 1014305
11:00+34вюв55190 0.0 10131542
14:00+37всв34150 0.0 10113441
17:00+38ссв65120 0.0 10093824
20:00+33св55160 0.0 101042
12 августа, пт
пт1223:00+30всв44170 0.0 101128
02:00+27всв58200 0.0 101184
05:00+26в33220 0.0 101117
08:00+27вюв24250 0.0 1013130
11:00+34ююв44150 0.0 10121110
14:00+37ссв13130 0.0 10103671
17:00+38ссв44111 0.0 10093995
20:00+34св44150 0.0 100926
13 августа, сб
сб1323:00+31св45190 0.0 101134
02:00+29в45210 0.0 101140
05:00+27вюв33240 0.0 101113
08:00+29ссв22210 0.0 101345
11:00+35вюв23150 0.0 10121011
14:00+38св24120 0.0 10103420
17:00+39ссв54110 0.0 10093851
20:00+34ссв56140 0.0 101047
14 августа, вс
вс1423:00+32ссв45170 0.0 101132
02:00+29всв814260 0.0 1011302
05:00+26всв59310 0.0 1012130
08:00+26всв612360 0.0 1013374
11:00+34в77220 0.0 10131196
14:00+37всв54150 0.0 10103067
17:00+38св65150 0.0 10093194
20:00+33св44190 0.0 101024